ITARNLAS2 Weather Reports


Display with metric or nautical units.
time (UTC)temp
F
wind
direction
speed
MPH
gust
MPH
rain 1hr
in
rain 24hr
in
rain mn
in
humidity
%
barometer
mb
20260504033056 53 90 3.0 9.0 0.00 0.00 0.00 100 1012.8
20260504031606 53 0 2.0 10.0 0.00 0.00 0.00 100 1013.1
20260504030058 53 117 1.0 13.0 0.00 0.00 0.00 100 1013.2
20260504024603 53 157 5.0 15.0 0.00 0.00 0.00 100 1013.4
20260504023058 53 91 4.0 13.0 0.00 0.00 0.00 100 1013.3
20260504021557 53 204 4.0 13.0 0.00 0.00 0.00 100 1013.5
20260504020109 53 183 3.0 10.0 0.00 0.00 0.00 100 1013.7
20260504014556 53 233 3.0 14.0 0.00 0.00 0.00 100 1013.6
20260504013053 52 81 4.0 15.0 0.00 0.00 0.00 100 1013.5
20260504011553 52 81 1.0 11.0 0.00 0.00 0.00 100 1013.6
20260504010056 52 113 5.0 14.0 0.00 0.00 0.00 100 1013.6
20260504004555 52 138 5.0 15.0 0.00 0.00 0.00 100 1013.8
20260504003057 52 148 2.0 11.0 0.00 0.00 0.00 100 1013.7
20260504001556 52 74 5.0 14.0 0.00 0.00 0.00 100 1013.9
20260504000101 52 264 6.0 17.0 0.00 0.00 0.00 100 1014.1
20260503234624 52 17 5.0 19.0 0.00 0.00 0.00 100 1014.2
20260503233058 51 77 7.0 17.0 0.00 0.00 0.00 100 1014.2
20260503231552 52 116 6.0 18.0 0.00 0.00 0.00 100 1014.1
20260503230056 52 76 5.0 15.0 0.00 0.00 0.00 100 1014.0
20260503224553 51 151 8.0 20.0 0.00 0.00 0.00 100 1014.2
20260503223056 52 11 5.0 15.0 0.00 0.00 0.00 100 1014.3
20260503221606 52 211 4.0 21.0 0.00 0.00 0.00 100 1014.6
20260503220059 52 71 6.0 20.0 0.00 0.00 0.00 100 1014.5
20260503214556 52 207 6.0 21.0 0.00 0.00 0.00 100 1014.4
20260503213054 52 258 7.0 23.0 0.00 0.00 0.00 100 1014.4
20260503211555 52 96 7.0 19.0 0.00 0.00 0.00 100 1014.3
20260503210057 52 140 4.0 27.0 0.00 0.00 0.00 100 1014.5
20260503204557 52 115 6.0 20.0 0.00 0.00 0.00 100 1014.4
20260503203057 53 180 4.0 19.0 0.00 0.00 0.00 100 1014.4
20260503201553 53 148 4.0 19.0 0.00 0.00 0.00 100 1014.1
20260503200057 53 123 7.0 17.0 0.00 0.00 0.00 100 1014.3
20260503194600 53 136 6.0 15.0 0.00 0.00 0.00 100 1014.1
20260503193053 53 133 5.0 16.0 0.00 0.00 0.00 100 1014.0
20260503191555 53 72 4.0 16.0 0.00 0.00 0.00 100 1014.1
20260503190055 53 92 5.0 20.0 0.00 0.00 0.00 100 1014.1
20260503184557 53 182 5.0 20.0 0.00 0.00 0.00 100 1014.1
20260503183057 53 153 6.0 22.0 0.00 0.00 0.00 100 1014.1
20260503181555 53 148 6.0 19.0 0.00 0.00 0.00 100 1014.0
20260503174559 53 105 7.0 19.0 0.00 0.00 0.00 100 1014.2
20260503173100 53 66 7.0 19.0 0.00 0.00 0.00 100 1014.1
20260503171559 54 135 8.0 21.0 0.00 0.00 0.00 100 1014.3
20260503110109 57 114 5.0 17.0 0.00 0.00 0.00 100 1017.3
20260503081554 54 128 6.0 11.0 0.00 0.00 0.00 100 1017.0
20260503071611 54 158 3.0 15.0 0.00 0.00 0.00 100 1016.7
20260503060116 53 97 5.0 16.0 0.00 0.00 0.00 100 1016.3
20260503054600 53 178 7.0 17.0 0.00 0.00 0.00 100 1016.2
20260503053055 53 112 5.0 14.0 0.00 0.00 0.00 100 1016.0
20260503051555 53 156 6.0 16.0 0.00 0.00 0.00 100 1015.8
20260503050055 52 198 4.0 16.0 0.00 0.00 0.00 100 1015.6
20260503044554 53 163 4.0 20.0 0.00 0.00 0.00 100 1015.8
20260503043054 52 133 6.0 21.0 0.00 0.00 0.00 100 1015.6
20260503041554 52 255 6.0 17.0 0.00 0.00 0.00 100 1015.7
20260503040114 52 109 8.0 19.0 0.00 0.00 0.00 100 1015.6
20260503034556 52 231 5.0 17.0 0.00 0.00 0.00 100 1015.6